[[{"header":{"parameterUnit":"m.s-1","parameterCategory":1,"la1":30.2991,"la2":30.254,"lo1":-89.0895,"lo2":-89.0444,"dy":0.0017,"dx":0.0017,"nx":28,"ny":28,"refTime":"2025-05-17T03:00:00:Z","depth":0,"parameterNumber":2,"parameterNumberName":"U-component_of_WINDS"},"data":[0,0,0,0,0,0,0,0,0,0,0,0,0,0,0,0,0,0,0,0,0,0,0,0,0,0,0,0,0,0,0,0,0,0,0,0,0,0,0,0,0,0,0,0,0,0,0,0,0,0,0,0,0,0,0,0,0,0,2.2792,2.2793,0,2.2898,2.2899,2.29,2.2864,2.2861,2.2859,2.2857,2.2969,2.2974,2.2979,0,0,0,0,0,0,0,0,0,0,0,0,0,2.2562,2.2567,2.2792,2.2793,2.2795,2.2897,2.2899,2.29,2.2864,2.2861,2.2858,2.2856,2.2967,2.2973,2.2979,0,0,0,0,0,0,0,0,0,0,0,0,0,2.2665,2.2568,2.2792,2.2789,2.279,2.2897,2.2899,2.2901,2.2865,2.2861,2.2858,2.2854,2.2965,2.2973,2.298,2.3098,0,0,2.3004,2.3007,0,0,0,0,0,0,0,0,2.2659,2.2673,2.2788,2.2789,2.279,2.2864,2.2859,2.2967,2.2866,2.2836,2.2857,2.2853,2.2937,2.2947,2.2974,2.3103,2.3108,2.3005,2.3009,2.3013,2.3015,0,0,0,0,0,0,0,2.2652,2.2668,2.2834,2.279,2.2791,2.2783,2.2794,2.2879,2.2905,2.2839,2.2836,2.2849,2.2937,2.2967,2.2977,2.311,2.3004,2.3011,2.3016,2.3019,2.334,2.3344,0,0,0,0,0,0,2.2644,2.2663,2.2831,2.2837,2.2714,2.279,2.2802,2.2844,2.2904,2.291,2.2852,2.2847,2.2955,2.2968,2.2981,2.3122,2.3012,2.302,2.3024,2.3336,2.3341,2.3345,0,0,0,0,0,0,2.2639,2.2659,2.2826,2.2749,2.277,2.2798,2.2845,2.2848,2.2878,2.2914,2.2919,2.2878,2.2953,2.297,2.3069,2.3125,2.3023,2.303,2.3331,2.3337,2.3343,2.3405,0,0,0,0,0,0,2.2632,2.2657,2.2702,2.275,2.2774,2.2912,2.2849,2.2852,2.2891,2.2885,2.2939,2.2945,2.2952,2.3057,2.3076,2.3134,2.3036,2.3326,2.3334,2.3341,2.3399,2.3413,2.3425,0,0,0,0,0,2.2624,2.2716,2.2704,2.2725,2.283,2.2915,2.2929,2.2933,2.2895,2.2941,2.2964,2.2943,2.3116,2.3068,2.3089,2.315,2.3323,2.3332,2.334,2.3393,2.341,2.3425,0,0,0,0,0,0,2.2675,2.2723,2.271,2.282,2.2864,2.2909,2.2966,2.2952,2.3008,2.3001,2.3005,2.3018,2.312,2.3145,2.309,2.3266,2.3214,2.3227,2.3246,2.3263,2.3276,2.3268,2.3043,0,0,0,0,0,2.2699,2.2763,2.2801,2.2895,2.2917,2.2938,2.2975,2.2975,2.3021,2.304,2.307,2.3116,2.3181,2.3223,2.3285,2.3402,2.3413,2.3454,2.3467,2.3478,2.349,2.3553,2.3571,2.3374,2.3374,2.3373,0,0,2.2749,2.2783,2.2823,2.2906,2.294,2.3007,2.2954,2.3027,2.3077,2.3051,2.3146,2.317,2.3222,2.333,2.338,2.3354,2.3547,2.3489,2.3497,2.3503,2.3564,2.3582,2.3599,2.338,2.3378,2.3378,0,0,2.2874,2.2906,2.2987,2.3022,2.3073,2.3086,2.3106,2.3153,2.3168,2.3262,2.3244,2.3304,2.3415,2.3453,2.3487,2.3626,2.3609,2.3646,2.3715,2.3776,2.3792,2.3806,2.3855,2.3873,2.3657,2.3657,2.3658,0,2.293,2.3029,2.3031,2.3106,2.3143,2.3121,2.3203,2.3237,2.3307,2.3333,2.3303,2.3442,2.3475,2.3592,2.3625,2.3654,2.3676,2.364,2.3789,2.3803,2.3816,2.3863,2.3882,2.3661,2.3661,2.3661,2.366,0,2.3096,2.3165,2.3224,2.329,2.3334,2.3412,2.3426,2.3471,2.3467,2.3483,2.358,2.3619,2.3688,2.3716,2.3713,2.3832,2.3815,2.3787,2.3735,2.3839,2.3883,2.3901,2.3667,2.3666,2.3665,2.3664,0,0,2.3256,2.3321,2.3343,2.3372,2.3427,2.3481,2.3558,2.3624,2.3662,2.3711,2.3776,2.387,2.3845,2.3883,2.3884,2.3939,2.4046,2.3905,2.3906,2.3929,2.4179,2.4198,2.4219,2.4035,2.4038,2.4041,2.4174,0,2.3385,2.3519,2.3523,2.3647,2.3711,2.3691,2.3758,2.38,2.3817,2.3874,2.3894,2.3961,2.3922,2.3945,2.3998,2.4021,2.4096,2.4012,2.4096,2.4099,2.4083,2.4242,2.4264,2.4387,2.4191,2.4194,2.4196,0,2.3554,2.3606,2.3736,2.378,2.3807,2.3868,2.3928,2.3983,2.403,2.4039,2.4081,2.4075,2.4154,2.4099,2.4209,2.4152,2.4187,2.4204,2.4209,2.4216,2.4154,2.4254,2.4427,2.4445,2.4224,2.4222,2.422,0,2.3657,2.376,2.385,2.3876,2.3931,2.3974,2.3999,2.4042,2.4081,2.4135,2.416,2.4223,2.4257,2.4306,2.4316,2.4275,2.4427,2.4372,2.4437,2.4436,2.4469,2.4467,2.465,2.4492,2.4492,2.4492,2.4491,0,2.38,2.388,2.3897,2.3953,2.4042,2.4046,2.4134,2.4156,2.4195,2.4255,2.4242,2.4299,2.431,2.437,2.4379,2.4468,2.4484,2.4494,2.4495,2.4495,2.4494,2.4517,2.4509,2.4497,2.4496,2.4495,2.4494,0,2.393,2.3945,2.4042,2.4086,2.4099,2.4162,2.42,2.4254,2.4269,2.4346,2.4364,2.4389,2.4459,2.4474,2.4557,2.4563,2.4669,2.4663,2.4653,2.4652,2.4716,2.4709,2.492,2.4948,2.4773,2.4774,2.4776,0,2.4021,2.4081,2.4131,2.417,2.4197,2.426,2.4299,2.4306,2.4347,2.4405,2.4452,2.4519,2.4574,2.4686,2.4712,2.4775,2.477,2.4839,2.4779,2.4777,2.477,2.4766,2.4772,2.4851,2.4853,2.4854,2.4855,0,2.4179,2.4183,2.424,2.43,2.4347,2.4394,2.4439,2.4472,2.4485,2.4533,2.4603,2.4645,2.4729,2.4796,2.4859,2.4886,2.4874,2.4874,2.4892,2.4892,2.4884,2.4889,2.4684,2.4869,2.4868,2.4867,2.4866,2.4865,2.4292,2.4344,2.4388,2.4451,2.4486,2.4528,2.458,2.4602,2.466,2.4728,2.4729,2.4805,2.4851,2.4934,2.4965,2.5025,2.5004,2.503,2.5037,2.5043,2.5049,2.4874,2.5037,2.5037,2.5036,2.5036,2.5036,0,2.4449,2.4476,2.4534,2.4597,2.4647,2.463,2.4679,2.4722,2.4789,2.4832,2.4885,2.4966,2.5031,2.5062,2.5127,2.5169,2.5165,2.5186,2.5183,2.5189,2.5064,2.5042,2.5189,2.5188,2.5188,2.5188,2.5188,2.5188,2.4537,2.4625,2.4634,2.4739,2.4766,2.484,2.4869,2.4908,2.4942,2.5032,2.5086,2.5105,2.5144,2.5211,2.527,2.5278,2.5302,2.5326,2.5331,2.5214,2.5198,2.5183,2.5162,2.5332,2.5332,2.5451,2.5452,2.5453]},{"header":{"parameterUnit":"m.s-1","parameterCategory":1,"la1":30.2991,"la2":30.254,"lo1":-89.0895,"lo2":-89.0444,"dy":0.0017,"dx":0.0017,"nx":28,"ny":28,"refTime":"2025-05-17T03:00:00:Z","depth":0,"parameterNumber":3,"parameterNumberName":"V-component_of_WINDS"},"data":[0,0,0,0,0,0,0,0,0,0,0,0,0,0,0,0,0,0,0,0,0,0,0,0,0,0,0,0,0,0,0,0,0,0,0,0,0,0,0,0,0,0,0,0,0,0,0,0,0,0,0,0,0,0,0,0,0,0,3.741,3.7412,0,3.7565,3.7567,3.7569,3.7596,3.7595,3.7594,3.7592,3.7744,3.7749,3.7754,0,0,0,0,0,0,0,0,0,0,0,0,0,3.713,3.7135,3.741,3.7412,3.7414,3.7565,3.7567,3.7569,3.7596,3.7595,3.7593,3.7592,3.7742,3.7748,3.7755,0,0,0,0,0,0,0,0,0,0,0,0,0,3.7265,3.7137,3.7409,3.7446,3.7451,3.7564,3.7567,3.757,3.7597,3.7595,3.7593,3.7591,3.774,3.7748,3.7755,3.7842,0,0,3.7779,3.7783,0,0,0,0,0,0,0,0,3.7257,3.7275,3.7438,3.7443,3.7449,3.756,3.7524,3.766,3.7597,3.7541,3.7592,3.759,3.7684,3.7696,3.7729,3.7849,3.7855,3.778,3.7785,3.7788,3.779,0,0,0,0,0,0,0,3.7248,3.7269,3.7471,3.7441,3.7447,3.7452,3.7469,3.755,3.7621,3.7546,3.7548,3.7567,3.7686,3.7721,3.7733,3.7857,3.778,3.7787,3.7792,3.7795,3.8055,3.8057,0,0,0,0,0,0,3.7233,3.7261,3.7466,3.7476,3.7347,3.7459,3.7478,3.7526,3.762,3.7633,3.7568,3.7567,3.7709,3.7724,3.7738,3.7846,3.7788,3.7795,3.78,3.8053,3.8055,3.8058,0,0,0,0,0,0,3.7227,3.7251,3.746,3.7369,3.7396,3.7465,3.7519,3.753,3.7565,3.7637,3.7649,3.7592,3.7708,3.7727,3.7816,3.7851,3.7799,3.7806,3.805,3.8054,3.8057,3.8061,0,0,0,0,0,0,3.7219,3.7249,3.7284,3.737,3.7401,3.7538,3.7521,3.7534,3.758,3.758,3.7662,3.7674,3.7708,3.7804,3.7824,3.7861,3.7812,3.8047,3.8052,3.8056,3.8058,3.8064,3.8069,0,0,0,0,0,3.7209,3.7277,3.7286,3.731,3.7447,3.754,3.7557,3.7597,3.7582,3.7617,3.7663,3.7671,3.7844,3.7813,3.7836,3.7875,3.8045,3.805,3.8055,3.8055,3.8063,3.8069,0,0,0,0,0,0,3.7192,3.7289,3.73,3.7398,3.7461,3.7544,3.759,3.7603,3.7669,3.7667,3.7711,3.7729,3.7816,3.7854,3.7818,3.7963,3.7943,3.7953,3.7936,3.7943,3.7949,3.7938,3.7819,0,0,0,0,0,3.72,3.727,3.735,3.7429,3.746,3.7519,3.7561,3.7587,3.7652,3.7678,3.773,3.7791,3.7859,3.7903,3.797,3.8063,3.8081,3.8101,3.8107,3.8111,3.8119,3.8171,3.8181,3.8074,3.8074,3.8074,0,0,3.7216,3.7278,3.7319,3.7427,3.7479,3.7548,3.7541,3.7615,3.7666,3.7688,3.7777,3.7817,3.7888,3.7979,3.8022,3.8014,3.8152,3.8117,3.812,3.8126,3.8177,3.8187,3.8196,3.8078,3.8077,3.8077,0,0,3.7283,3.7337,3.7409,3.7461,3.754,3.7579,3.7596,3.7678,3.7706,3.7796,3.7814,3.7874,3.799,3.804,3.8081,3.8165,3.8175,3.8185,3.8215,3.8265,3.8273,3.8281,3.8311,3.8321,3.8193,3.8193,3.8193,0,3.7293,3.7401,3.7444,3.7518,3.7564,3.759,3.7662,3.7709,3.7804,3.7835,3.7825,3.7972,3.8021,3.8125,3.8146,3.8177,3.8197,3.8177,3.8269,3.8277,3.8285,3.8314,3.8325,3.8194,3.8194,3.8193,3.8193,0,3.741,3.7484,3.7532,3.7626,3.7678,3.775,3.7802,3.7849,3.7869,3.7909,3.7999,3.8059,3.8138,3.8164,3.8184,3.8271,3.8263,3.826,3.8241,3.8295,3.8323,3.8335,3.8195,3.8194,3.8194,3.8194,0,0,3.747,3.7588,3.7605,3.7648,3.7736,3.7793,3.7866,3.7946,3.7985,3.8049,3.811,3.8208,3.8206,3.8252,3.8277,3.8321,3.8384,3.8313,3.8315,3.8324,3.8482,3.8485,3.8497,3.8391,3.8393,3.8395,3.8477,0,3.7547,3.7681,3.7722,3.7833,3.7901,3.7926,3.7989,3.8048,3.8087,3.8148,3.8189,3.8258,3.825,3.8278,3.8322,3.8367,3.8416,3.8361,3.8446,3.8449,3.8429,3.8512,3.8515,3.8589,3.8488,3.849,3.8491,0,3.7656,3.7725,3.7843,3.7923,3.7953,3.801,3.8086,3.8145,3.8212,3.8237,3.8288,3.831,3.8384,3.836,3.8462,3.8424,3.8461,3.8488,3.8491,3.8501,3.8474,3.8524,3.8614,3.8625,3.8509,3.8508,3.8506,0,3.7689,3.7811,3.7898,3.7933,3.8029,3.8068,3.8108,3.8174,3.822,3.8285,3.8315,3.8387,3.8427,3.8481,3.8521,3.85,3.8619,3.8598,3.864,3.8639,3.8665,3.8663,3.8762,3.8687,3.8687,3.8687,3.8687,0,3.7771,3.7842,3.7914,3.7967,3.8047,3.8092,3.8169,3.8211,3.8269,3.833,3.8354,3.8409,3.8458,3.852,3.855,3.863,3.8647,3.8668,3.8676,3.8667,3.8664,3.8692,3.8688,3.869,3.8689,3.8689,3.8688,0,3.7822,3.7873,3.7969,3.8052,3.8074,3.8129,3.8199,3.8251,3.8289,3.8365,3.8385,3.8446,3.8519,3.8564,3.8656,3.8677,3.8765,3.877,3.8743,3.8747,3.8786,3.8782,3.8907,3.8926,3.8838,3.8839,3.8839,0,3.7871,3.7928,3.8017,3.806,3.8103,3.8172,3.8219,3.8264,3.8312,3.8392,3.8434,3.8509,3.8572,3.8688,3.8738,3.8808,3.8816,3.8855,3.8826,3.8815,3.8817,3.8813,3.8819,3.8859,3.886,3.8861,3.8861,0,3.7954,3.7977,3.8045,3.8123,3.8179,3.8241,3.8303,3.8336,3.8391,3.8443,3.852,3.8569,3.8664,3.8738,3.8813,3.8852,3.8866,3.887,3.8883,3.8875,3.8857,3.8868,3.8757,3.8867,3.8866,3.8866,3.8866,3.8865,3.8007,3.8058,3.8129,3.8204,3.8256,3.8313,3.8366,3.8412,3.8478,3.8561,3.8583,3.8663,3.8727,3.883,3.887,3.8932,3.8926,3.8945,3.895,3.8955,3.8956,3.8847,3.8945,3.8945,3.8945,3.8945,3.8945,0,3.8091,3.8139,3.8207,3.8294,3.8353,3.8363,3.8431,3.8479,3.855,3.8611,3.8673,3.876,3.8832,3.8888,3.8962,3.9,3.9008,3.9018,3.9015,3.9024,3.8957,3.8938,3.901,3.901,3.901,3.901,3.901,3.901,3.8142,3.823,3.826,3.8372,3.8418,3.85,3.8538,3.859,3.8639,3.8736,3.8797,3.8834,3.8892,3.897,3.9036,3.905,3.9076,3.9085,3.91,3.9036,3.9029,3.9022,3.9005,3.909,3.909,3.9162,3.9163,3.9164]}]]